Location: Hungerford
(51.4167°N, 1.5167°W)
Time: 13:15:47
(UTC+00:00)

USA 238 DEB - Pass Details

Date: 18 September 2020
Orbit: 1006 x 1206 km, 63.4° (Epoch: 15 October)

Event Time Altitude Azimuth Distance (km) Brightness Sun altitude
Rises 19:30:05 0° 314° (NW) 3,916 7.9 -12.7°
Reaches altitude 10° 19:32:43 10° 315° (NW) 2,985 7.1 -13.0°
Maximum altitude 19:39:53 81° 44° (NE) 1,171 3.8 -14.1°
Enters shadow 19:45:39 18° 130° (SE) 2,517 5.1 -14.9°
